User: anonymous   Login
Location: Simi Valley
(34.2690°N, 118.7810°W)
Time: 05:45:00
(UTC-07:00)
Language:

Lacrosse 5 rocket - Orbit

View from above orbital plane
View from above orbital plane
View from above satellite
View from above satellite

Ground track
Ground track

The orbit data is extracted from the following two-line orbital elements,

1 28647U 05016B   17202.90537989 0.00000308  00000-0  17594-4 0    05
2 28647  56.9825 234.5418 0133004  29.3890 330.4613 15.04985831    07
Epoch (UTC): 21 July 2017 21:43:44
Eccentricity: 0.0133004
inclination: 56.9825°
perigee height: 459 km
apogee height: 644 km
right ascension of ascending node: 234.5418°
argument of perigee: 29.3890°
revolutions per day: 15.04985831
mean anomaly at epoch: 330.4613°
orbit number at epoch: 0

The dashed part of the orbit path shows where the satellite is in the earth's shadow,  

DLR